| time (UTC) | temp F | wind direction | speed knots | gust knots | rain 1hr in | rain 24hr in | rain mn in | humidity % | barometer mb |
| 20260505112204 | 51 | 86 | 1.7 | 7.8 | 0.00 | 0.00 | 0.00 | 82 | 1007.6 |
| 20260505111703 | 51 | 169 | 3.5 | 13.0 | 0.00 | 0.00 | 0.00 | 81 | 1007.8 |
| 20260505111203 | 51 | 31 | 2.6 | 17.4 | 0.00 | 0.00 | 0.00 | 81 | 1007.7 |
| 20260505110704 | 51 | 32 | 6.1 | 12.2 | 0.00 | 0.00 | 0.00 | 81 | 1007.7 |
| 20260505110203 | 51 | 145 | 4.3 | 20.0 | 0.00 | 0.00 | 0.00 | 80 | 1007.4 |
| 20260505102203 | 57 | 54 | 7.0 | 18.2 | 0.00 | 0.00 | 0.00 | 71 | 1008.3 |
| 20260505101704 | 60 | 9 | 7.0 | 20.9 | 0.00 | 0.00 | 0.00 | 71 | 1008.6 |
| 20260505101204 | 63 | 38 | 8.7 | 20.9 | 0.00 | 0.00 | 0.00 | 70 | 1008.8 |
| 20260505100703 | 64 | 356 | 5.2 | 18.2 | 0.00 | 0.00 | 0.00 | 71 | 1008.4 |
| 20260505100203 | 64 | 54 | 7.0 | 18.2 | 0.00 | 0.00 | 0.00 | 71 | 1008.2 |
| 20260505095703 | 64 | 313 | 4.3 | 18.2 | 0.00 | 0.00 | 0.00 | 70 | 1008.2 |
| 20260505094704 | 65 | 43 | 5.2 | 12.2 | 0.00 | 0.00 | 0.00 | 69 | 1008.2 |
| 20260505094203 | 65 | 269 | 4.3 | 13.9 | 0.00 | 0.00 | 0.00 | 69 | 1007.9 |
| 20260505093704 | 65 | 266 | 3.5 | 7.8 | 0.00 | 0.00 | 0.00 | 69 | 1007.6 |
| 20260505093203 | 65 | 312 | 0.9 | 7.0 | 0.00 | 0.00 | 0.00 | 68 | 1007.3 |
| 20260505092703 | 65 | 205 | 1.7 | 6.1 | 0.00 | 0.00 | 0.00 | 68 | 1006.9 |
| 20260505092203 | 65 | 272 | 1.7 | 4.3 | 0.00 | 0.00 | 0.00 | 67 | 1006.6 |
| 20260505091703 | 65 | 298 | 0.9 | 6.1 | 0.00 | 0.00 | 0.00 | 67 | 1006.5 |
| 20260505091203 | 65 | 293 | 1.7 | 11.3 | 0.00 | 0.00 | 0.00 | 67 | 1006.4 |
| 20260505090703 | 65 | 116 | 2.6 | 11.3 | 0.00 | 0.00 | 0.00 | 67 | 1006.2 |
| 20260505090203 | 65 | 187 | 1.7 | 17.4 | 0.00 | 0.00 | 0.00 | 66 | 1005.8 |
| 20260505085703 | 65 | 124 | 7.8 | 17.4 | 0.00 | 0.00 | 0.00 | 66 | 1006.2 |
| 20260505085204 | 65 | 157 | 8.7 | 17.4 | 0.00 | 0.00 | 0.00 | 66 | 1005.8 |
| 20260505084703 | 65 | 165 | 13.9 | 18.2 | 0.00 | 0.00 | 0.00 | 67 | 1005.9 |
| 20260505084203 | 65 | 169 | 7.0 | 15.6 | 0.00 | 0.00 | 0.00 | 67 | 1006.1 |
| 20260505083703 | 65 | 164 | 9.6 | 15.6 | 0.00 | 0.00 | 0.00 | 67 | 1006.6 |
| 20260505083204 | 64 | 144 | 6.1 | 11.3 | 0.00 | 0.00 | 0.00 | 68 | 1006.4 |
| 20260505082703 | 64 | 140 | 6.1 | 11.3 | 0.00 | 0.00 | 0.00 | 69 | 1006.8 |
| 20260505082203 | 64 | 123 | 5.2 | 7.8 | 0.00 | 0.00 | 0.00 | 68 | 1006.5 |
| 20260505081204 | 64 | 148 | 5.2 | 8.7 | 0.00 | 0.00 | 0.00 | 68 | 1006.6 |
| 20260505080703 | 64 | 142 | 5.2 | 11.3 | 0.00 | 0.00 | 0.00 | 68 | 1006.6 |
| 20260505080203 | 64 | 164 | 5.2 | 11.3 | 0.00 | 0.00 | 0.00 | 68 | 1006.5 |
| 20260505075703 | 64 | 164 | 6.1 | 12.2 | 0.00 | 0.00 | 0.00 | 67 | 1006.7 |
| 20260505075204 | 65 | 167 | 7.8 | 12.2 | 0.00 | 0.00 | 0.00 | 67 | 1006.8 |
| 20260505074703 | 65 | 164 | 6.1 | 10.4 | 0.00 | 0.00 | 0.00 | 67 | 1006.9 |
| 20260505074203 | 65 | 157 | 6.1 | 8.7 | 0.00 | 0.00 | 0.00 | 66 | 1007.0 |
| 20260505073703 | 65 | 173 | 5.2 | 8.7 | 0.00 | 0.00 | 0.00 | 66 | 1007.0 |
| 20260505073203 | 65 | 139 | 5.2 | 6.1 | 0.00 | 0.00 | 0.00 | 67 | 1007.2 |
| 20260505072704 | 65 | 168 | 4.3 | 6.1 | 0.00 | 0.00 | 0.00 | 67 | 1007.3 |
| 20260505072203 | 65 | 128 | 0.9 | 4.3 | 0.00 | 0.00 | 0.00 | 68 | 1007.5 |
| 20260505071703 | 64 | 146 | 2.6 | 5.2 | 0.00 | 0.00 | 0.00 | 68 | 1007.4 |
| 20260505071204 | 64 | 111 | 3.5 | 5.2 | 0.00 | 0.00 | 0.00 | 68 | 1007.5 |
| 20260505070703 | 64 | 92 | 3.5 | 4.3 | 0.00 | 0.00 | 0.00 | 68 | 1007.5 |
| 20260505070203 | 64 | 111 | 2.6 | 4.3 | 0.00 | 0.00 | 0.00 | 68 | 1007.6 |
| 20260505065204 | 64 | 122 | 0.9 | 1.7 | 0.00 | 0.00 | 0.00 | 68 | 1007.7 |
| 20260505064704 | 64 | 66 | 0.0 | 2.6 | 0.00 | 0.00 | 0.00 | 68 | 1007.7 |
| 20260505064203 | 64 | 303 | 0.0 | 4.3 | 0.00 | 0.00 | 0.00 | 68 | 1007.6 |
| 20260505063703 | 64 | 87 | 0.0 | 6.1 | 0.00 | 0.00 | 0.00 | 67 | 1007.5 |
| 20260505062704 | 64 | 153 | 2.6 | 8.7 | 0.00 | 0.00 | 0.00 | 67 | 1007.1 |
| 20260505062204 | 64 | 153 | 2.6 | 11.3 | 0.00 | 0.00 | 0.00 | 67 | 1007.1 |
| 20260505061703 | 64 | 85 | 3.5 | 11.3 | 0.00 | 0.00 | 0.00 | 67 | 1006.7 |
| 20260505061204 | 64 | 138 | 7.8 | 11.3 | 0.00 | 0.00 | 0.00 | 67 | 1006.7 |
| 20260505060703 | 64 | 106 | 7.8 | 15.6 | 0.00 | 0.00 | 0.00 | 67 | 1006.7 |
| 20260505055703 | 65 | 139 | 5.2 | 14.8 | 0.00 | 0.00 | 0.00 | 66 | 1006.5 |
| 20260505055204 | 65 | 111 | 5.2 | 13.9 | 0.00 | 0.00 | 0.00 | 67 | 1006.7 |
| 20260505054703 | 65 | 157 | 7.0 | 13.9 | 0.00 | 0.00 | 0.00 | 66 | 1007.0 |
| 20260505054204 | 65 | 143 | 6.1 | 12.2 | 0.00 | 0.00 | 0.00 | 66 | 1007.1 |
| 20260505053703 | 65 | 137 | 6.1 | 11.3 | 0.00 | 0.00 | 0.00 | 65 | 1007.1 |
| 20260505053203 | 65 | 155 | 5.2 | 7.8 | 0.00 | 0.00 | 0.00 | 65 | 1007.0 |
| 20260505052703 | 65 | 125 | 4.3 | 7.8 | 0.00 | 0.00 | 0.00 | 65 | 1007.0 |
| 20260505052203 | 66 | 187 | 2.6 | 10.4 | 0.00 | 0.00 | 0.00 | 64 | 1007.2 |
| 20260505051203 | 66 | 113 | 3.5 | 7.8 | 0.00 | 0.00 | 0.00 | 64 | 1007.4 |
| 20260505050703 | 66 | 100 | 2.6 | 10.4 | 0.00 | 0.00 | 0.00 | 63 | 1007.5 |
| 20260505050204 | 66 | 124 | 6.1 | 12.2 | 0.00 | 0.00 | 0.00 | 63 | 1007.5 |
| 20260505041703 | 68 | 139 | 7.8 | 12.2 | 0.00 | 0.00 | 0.00 | 59 | 1007.8 |
| 20260505041203 | 68 | 127 | 5.2 | 13.0 | 0.00 | 0.00 | 0.00 | 58 | 1008.0 |
| 20260505040704 | 68 | 117 | 5.2 | 13.0 | 0.00 | 0.00 | 0.00 | 58 | 1008.0 |
| 20260505040203 | 69 | 106 | 3.5 | 12.2 | 0.00 | 0.00 | 0.00 | 57 | 1007.9 |
| 20260505035203 | 69 | 66 | 5.2 | 11.3 | 0.00 | 0.00 | 0.00 | 56 | 1008.0 |
| 20260505034704 | 69 | 157 | 6.1 | 14.8 | 0.00 | 0.00 | 0.00 | 56 | 1008.1 |
| 20260505033703 | 69 | 192 | 11.3 | 19.1 | 0.00 | 0.00 | 0.00 | 55 | 1008.0 |
| 20260505033204 | 70 | 145 | 7.8 | 18.2 | 0.00 | 0.00 | 0.00 | 55 | 1008.1 |
| 20260505032204 | 70 | 134 | 7.8 | 17.4 | 0.00 | 0.00 | 0.00 | 54 | 1008.2 |
| 20260505031704 | 70 | 148 | 5.2 | 14.8 | 0.00 | 0.00 | 0.00 | 54 | 1008.2 |
| 20260505030703 | 70 | 159 | 8.7 | 11.3 | 0.00 | 0.00 | 0.00 | 53 | 1008.4 |
| 20260505030204 | 71 | 40 | 3.5 | 11.3 | 0.00 | 0.00 | 0.00 | 53 | 1008.2 |
| 20260505025703 | 71 | 146 | 6.1 | 11.3 | 0.00 | 0.00 | 0.00 | 52 | 1008.2 |
| 20260505025203 | 71 | 149 | 7.8 | 10.4 | 0.00 | 0.00 | 0.00 | 52 | 1008.3 |
| 20260505024204 | 71 | 138 | 6.1 | 13.9 | 0.00 | 0.00 | 0.00 | 51 | 1008.1 |
| 20260505023204 | 71 | 117 | 4.3 | 13.9 | 0.00 | 0.00 | 0.00 | 51 | 1007.8 |
| 20260505022704 | 71 | 238 | 6.1 | 15.6 | 0.00 | 0.00 | 0.00 | 50 | 1008.0 |
| 20260505022203 | 71 | 172 | 2.6 | 10.4 | 0.00 | 0.00 | 0.00 | 50 | 1007.7 |
| 20260505021704 | 72 | 38 | 3.5 | 13.9 | 0.00 | 0.00 | 0.00 | 50 | 1007.8 |
| 20260505020703 | 72 | 116 | 5.2 | 12.2 | 0.00 | 0.00 | 0.00 | 50 | 1007.5 |
| 20260505020204 | 72 | 108 | 4.3 | 13.0 | 0.00 | 0.00 | 0.00 | 49 | 1007.6 |
| 20260505015704 | 72 | 118 | 5.2 | 13.0 | 0.00 | 0.00 | 0.00 | 48 | 1007.5 |
| 20260505015204 | 72 | 124 | 7.8 | 13.0 | 0.00 | 0.00 | 0.00 | 48 | 1007.4 |
| 20260505014703 | 73 | 117 | 5.2 | 11.3 | 0.00 | 0.00 | 0.00 | 48 | 1007.4 |
| 20260505014203 | 73 | 318 | 5.2 | 13.0 | 0.00 | 0.00 | 0.00 | 47 | 1007.3 |
| 20260505013704 | 73 | 123 | 4.3 | 13.0 | 0.00 | 0.00 | 0.00 | 46 | 1007.4 |
| 20260505012703 | 74 | 216 | 2.6 | 7.8 | 0.00 | 0.00 | 0.00 | 45 | 1007.3 |
| 20260505012204 | 74 | 274 | 4.3 | 11.3 | 0.00 | 0.00 | 0.00 | 45 | 1007.2 |
| 20260505011704 | 74 | 227 | 4.3 | 8.7 | 0.00 | 0.00 | 0.00 | 45 | 1007.2 |
| 20260505011203 | 74 | 83 | 3.5 | 8.7 | 0.00 | 0.00 | 0.00 | 44 | 1007.1 |
| 20260505010703 | 74 | 355 | 4.3 | 8.7 | 0.00 | 0.00 | 0.00 | 45 | 1007.2 |
| 20260505010203 | 75 | 179 | 3.5 | 15.6 | 0.00 | 0.00 | 0.00 | 44 | 1007.0 |
| 20260505005704 | 75 | 133 | 4.3 | 15.6 | 0.00 | 0.00 | 0.00 | 44 | 1006.8 |
| 20260505005203 | 75 | 115 | 3.5 | 11.3 | 0.00 | 0.00 | 0.00 | 44 | 1007.0 |
| 20260505004704 | 75 | 151 | 5.2 | 15.6 | 0.00 | 0.00 | 0.00 | 44 | 1006.9 |
| 20260505004203 | 76 | 134 | 4.3 | 17.4 | 0.00 | 0.00 | 0.00 | 44 | 1006.9 |
| 20260505003704 | 76 | 148 | 9.6 | 17.4 | 0.00 | 0.00 | 0.00 | 44 | 1007.0 |
| 20260505003204 | 76 | 119 | 7.8 | 14.8 | 0.00 | 0.00 | 0.00 | 44 | 1007.0 |
| 20260505002703 | 76 | 109 | 4.3 | 11.3 | 0.00 | 0.00 | 0.00 | 44 | 1007.0 |
| 20260505002204 | 77 | 127 | 5.2 | 12.2 | 0.00 | 0.00 | 0.00 | 43 | 1007.3 |
| 20260505001703 | 77 | 56 | 1.7 | 11.3 | 0.00 | 0.00 | 0.00 | 42 | 1007.1 |
| 20260505001203 | 78 | 237 | 4.3 | 14.8 | 0.00 | 0.00 | 0.00 | 42 | 1007.1 |
| 20260504235703 | 78 | 319 | 5.2 | 13.0 | 0.00 | 0.00 | 0.00 | 42 | 1007.3 |
| 20260504235204 | 78 | 191 | 1.7 | 12.2 | 0.00 | 0.00 | 0.00 | 42 | 1007.3 |
| 20260504234703 | 78 | 76 | 3.5 | 11.3 | 0.00 | 0.00 | 0.00 | 41 | 1007.3 |
| 20260504233204 | 80 | 120 | 4.3 | 18.2 | 0.00 | 0.00 | 0.00 | 39 | 1007.4 |
| 20260504232703 | 80 | 124 | 7.0 | 15.6 | 0.00 | 0.00 | 0.00 | 39 | 1007.6 |
| 20260504232204 | 80 | 193 | 6.1 | 10.4 | 0.00 | 0.00 | 0.00 | 39 | 1007.5 |
| 20260504231704 | 80 | 181 | 6.1 | 15.6 | 0.00 | 0.00 | 0.00 | 38 | 1007.7 |
| 20260504231203 | 80 | 80 | 3.5 | 18.2 | 0.00 | 0.00 | 0.00 | 39 | 1007.6 |
| 20260504230704 | 80 | 211 | 4.3 | 18.2 | 0.00 | 0.00 | 0.00 | 38 | 1007.7 |
| 20260504230204 | 80 | 173 | 1.7 | 15.6 | 0.00 | 0.00 | 0.00 | 38 | 1007.7 |
| 20260504225703 | 79 | 145 | 9.6 | 15.6 | 0.00 | 0.00 | 0.00 | 39 | 1007.6 |
| 20260504225204 | 79 | 38 | 5.2 | 11.3 | 0.00 | 0.00 | 0.00 | 39 | 1007.5 |
| 20260504224203 | 80 | 175 | 5.2 | 19.1 | 0.00 | 0.00 | 0.00 | 39 | 1007.9 |
| 20260504223704 | 81 | 136 | 4.3 | 20.9 | 0.00 | 0.00 | 0.00 | 39 | 1007.8 |
| 20260504223203 | 81 | 176 | 10.4 | 20.9 | 0.00 | 0.00 | 0.00 | 37 | 1007.7 |
| 20260504222703 | 81 | 290 | 7.0 | 14.8 | 0.00 | 0.00 | 0.00 | 38 | 1007.9 |
| 20260504221703 | 82 | 286 | 7.8 | 18.2 | 0.00 | 0.00 | 0.00 | 37 | 1008.0 |
| 20260504221204 | 82 | 125 | 3.5 | 17.4 | 0.00 | 0.00 | 0.00 | 36 | 1007.9 |
| 20260504220703 | 82 | 96 | 2.6 | 13.0 | 0.00 | 0.00 | 0.00 | 38 | 1008.0 |
| 20260504220203 | 82 | 240 | 6.1 | 17.4 | 0.00 | 0.00 | 0.00 | 37 | 1007.9 |
| 20260504215203 | 81 | 150 | 4.3 | 18.2 | 0.00 | 0.00 | 0.00 | 38 | 1008.1 |
| 20260504214704 | 81 | 162 | 7.8 | 19.1 | 0.00 | 0.00 | 0.00 | 38 | 1007.9 |
| 20260504214203 | 81 | 178 | 5.2 | 26.9 | 0.00 | 0.00 | 0.00 | 37 | 1008.0 |
| 20260504213703 | 81 | 171 | 4.3 | 26.9 | 0.00 | 0.00 | 0.00 | 38 | 1008.0 |
| 20260504212703 | 82 | 84 | 5.2 | 19.1 | 0.00 | 0.00 | 0.00 | 37 | 1008.1 |
| 20260504212204 | 81 | 184 | 5.2 | 13.9 | 0.00 | 0.00 | 0.00 | 36 | 1007.9 |
| 20260504211703 | 81 | 196 | 6.1 | 21.7 | 0.00 | 0.00 | 0.00 | 38 | 1007.9 |
| 20260504211204 | 81 | 148 | 7.0 | 25.2 | 0.00 | 0.00 | 0.00 | 36 | 1008.0 |
| 20260504210704 | 82 | 30 | 5.2 | 19.1 | 0.00 | 0.00 | 0.00 | 36 | 1008.1 |
| 20260504210204 | 82 | 323 | 7.0 | 20.9 | 0.00 | 0.00 | 0.00 | 36 | 1008.0 |
| 20260504205703 | 82 | 301 | 7.8 | 21.7 | 0.00 | 0.00 | 0.00 | 38 | 1008.1 |
| 20260504205204 | 82 | 144 | 5.2 | 21.7 | 0.00 | 0.00 | 0.00 | 37 | 1008.2 |
| 20260504204703 | 82 | 181 | 6.1 | 20.0 | 0.00 | 0.00 | 0.00 | 37 | 1008.2 |
| 20260504204203 | 82 | 138 | 6.1 | 20.0 | 0.00 | 0.00 | 0.00 | 35 | 1008.2 |
| 20260504203704 | 82 | 291 | 7.8 | 26.1 | 0.00 | 0.00 | 0.00 | 36 | 1008.5 |
| 20260504203203 | 82 | 110 | 7.8 | 21.7 | 0.00 | 0.00 | 0.00 | 35 | 1008.6 |
| 20260504202703 | 82 | 187 | 7.0 | 19.1 | 0.00 | 0.00 | 0.00 | 38 | 1008.5 |
| 20260504201704 | 82 | 170 | 10.4 | 21.7 | 0.00 | 0.00 | 0.00 | 37 | 1008.5 |
| 20260504201203 | 82 | 203 | 7.8 | 28.7 | 0.00 | 0.00 | 0.00 | 37 | 1008.6 |
| 20260504200703 | 81 | 259 | 5.2 | 18.2 | 0.00 | 0.00 | 0.00 | 39 | 1008.5 |
| 20260504200204 | 81 | 315 | 2.6 | 20.9 | 0.00 | 0.00 | 0.00 | 38 | 1008.5 |
| 20260504195703 | 81 | 173 | 9.6 | 20.9 | 0.00 | 0.00 | 0.00 | 37 | 1008.6 |
| 20260504195204 | 81 | 275 | 5.2 | 20.0 | 0.00 | 0.00 | 0.00 | 37 | 1008.6 |
| 20260504194204 | 81 | 139 | 7.8 | 21.7 | 0.00 | 0.00 | 0.00 | 39 | 1008.7 |
| 20260504193703 | 80 | 135 | 6.1 | 25.2 | 0.00 | 0.00 | 0.00 | 39 | 1008.8 |
| 20260504192703 | 81 | 209 | 7.8 | 15.6 | 0.00 | 0.00 | 0.00 | 39 | 1009.1 |
| 20260504191203 | 81 | 158 | 8.7 | 18.2 | 0.00 | 0.00 | 0.00 | 38 | 1009.3 |
| 20260504190704 | 80 | 339 | 4.3 | 18.2 | 0.00 | 0.00 | 0.00 | 40 | 1009.3 |
| 20260504190203 | 80 | 164 | 7.8 | 20.9 | 0.00 | 0.00 | 0.00 | 38 | 1009.3 |
| 20260504185704 | 80 | 166 | 6.1 | 20.9 | 0.00 | 0.00 | 0.00 | 39 | 1009.3 |
| 20260504185204 | 80 | 187 | 7.8 | 20.9 | 0.00 | 0.00 | 0.00 | 38 | 1009.4 |
| 20260504184703 | 79 | 241 | 8.7 | 20.9 | 0.00 | 0.00 | 0.00 | 39 | 1009.3 |
| 20260504184204 | 79 | 164 | 6.1 | 20.9 | 0.00 | 0.00 | 0.00 | 40 | 1009.4 |
| 20260504183703 | 78 | 148 | 8.7 | 17.4 | 0.00 | 0.00 | 0.00 | 39 | 1009.0 |
| 20260504183204 | 77 | 119 | 3.5 | 18.2 | 0.00 | 0.00 | 0.00 | 41 | 1009.1 |
| 20260504182204 | 78 | 265 | 4.3 | 17.4 | 0.00 | 0.00 | 0.00 | 41 | 1009.2 |
| 20260504181703 | 78 | 207 | 2.6 | 18.2 | 0.00 | 0.00 | 0.00 | 40 | 1009.4 |
| 20260504181203 | 77 | 151 | 7.8 | 19.1 | 0.00 | 0.00 | 0.00 | 41 | 1009.3 |
| 20260504180704 | 78 | 277 | 10.4 | 21.7 | 0.00 | 0.00 | 0.00 | 39 | 1009.3 |
| 20260504175703 | 78 | 255 | 8.7 | 21.7 | 0.00 | 0.00 | 0.00 | 39 | 1009.4 |
| 20260504175203 | 78 | 285 | 10.4 | 19.1 | 0.00 | 0.00 | 0.00 | 40 | 1009.3 |
| 20260504174703 | 79 | 19 | 7.0 | 19.1 | 0.00 | 0.00 | 0.00 | 39 | 1009.4 |
| 20260504174203 | 79 | 150 | 7.8 | 17.4 | 0.00 | 0.00 | 0.00 | 41 | 1009.1 |
| 20260504173703 | 78 | 133 | 4.3 | 17.4 | 0.00 | 0.00 | 0.00 | 40 | 1009.1 |
| 20260504173203 | 78 | 333 | 4.3 | 21.7 | 0.00 | 0.00 | 0.00 | 39 | 1009.2 |
| 20260504172703 | 78 | 158 | 6.1 | 21.7 | 0.00 | 0.00 | 0.00 | 40 | 1009.3 |
| 20260504172203 | 78 | 304 | 5.2 | 20.9 | 0.00 | 0.00 | 0.00 | 41 | 1009.3 |
| 20260504171703 | 77 | 163 | 11.3 | 27.8 | 0.00 | 0.00 | 0.00 | 40 | 1009.1 |
| 20260504171204 | 78 | 247 | 6.1 | 27.8 | 0.00 | 0.00 | 0.00 | 39 | 1009.2 |
| 20260504170703 | 78 | 340 | 7.8 | 20.9 | 0.00 | 0.00 | 0.00 | 39 | 1009.2 |
| 20260504170204 | 77 | 36 | 6.1 | 22.6 | 0.00 | 0.00 | 0.00 | 41 | 1008.9 |
| 20260504160203 | 75 | 296 | 8.7 | 24.3 | 0.00 | 0.00 | 0.00 | 41 | 1009.3 |
| 20260504150704 | 71 | 285 | 7.8 | 18.2 | 0.00 | 0.00 | 0.00 | 46 | 1009.4 |
| 20260504150204 | 70 | 51 | 2.6 | 20.9 | 0.00 | 0.00 | 0.00 | 47 | 1009.4 |
| 20260504141204 | 69 | 271 | 6.1 | 19.1 | 0.00 | 0.00 | 0.00 | 48 | 1009.8 |
| 20260504130703 | 66 | 257 | 4.3 | 13.9 | 0.00 | 0.00 | 0.00 | 50 | 1009.8 |
| 20260504130203 | 65 | 138 | 5.2 | 12.2 | 0.00 | 0.00 | 0.00 | 51 | 1009.6 |
| 20260504120204 | 62 | 282 | 5.2 | 10.4 | 0.00 | 0.00 | 0.00 | 53 | 1009.6 |